VIASAT-3 F2

Last updated on Mon Sep 07 2026 00:03:03 GMT+0000 (Coordinated Universal Time)

1 66454U 25261A 26249.50489462 -.00000249 00000+0 00000+0 0 9996 2 66454 0.0169 88.5533 0001417 183.2266 176.5778 1.00269849 3605
UTC large
Height (km)
Speed (km/s)
/
Latitude / Longitude
Inclination (degrees)
Orbital Period (minutes)
Azimuth
Elevation
Range (km)
Doppler Factor

Next 0 passes for location: London (51.5072 / 0.1276)

No passes found over London.
VIASAT-3 F2